Погода в Счастливцево

Украина / Херсонская область     46°01′56″N   34°50′08″E
темп.,
°C
ветер,
м/с
пор.,
м/с
влажн.,
%
обл.,
%
осадки,
мм/ч
давл.,
гПа
погр.,
м
23 апреля, пт
пт2300:00+10юз57840 0.0 1023107
03:00+9ююз56805 0.0 1022132
06:00+9ююз3478100 0.0 102291
09:00+10ююв2379100 0.0 102237
12:00+11юв4476100 0.0 102155
15:00+12вюв4579100 0.0 101942
18:00+12ююв3476100 0.0 101840
21:00+12з2375100 0.0 101820
24 апреля, сб
сб2400:00+11з568311 0.0 101883
03:00+10з6893100 0.0 1018308
06:00+9ссз8108224 0.1 1019605
09:00+8сз67730 0.1 1021520
12:00+9з67740 0.0 1022249
15:00+12з69601 0.0 1021164
18:00+11зсз71066100 0.0 1021169
21:00+10з7972100 0.0 1023191
25 апреля, вс
вс2500:00+10с6867100 0.0 1023271
03:00+10всв566769 0.0 1023310
06:00+10всв456776 0.0 1022331
09:00+10всв5668100 0.0 1022450
12:00+10в6667100 0.0 1022531
15:00+10в6663100 0.0 1021542
18:00+10в5661100 0.0 1019337
21:00+10вюв4561100 0.0 1020315
26 апреля, пн
пн2600:00+10вюв346296 0.0 1019195
03:00+10ссв236345 0.0 1018130
06:00+9ссв3363100 0.0 1017199
09:00+9ссв22602 0.0 1018168
12:00+10юз11535 0.0 1017152
15:00+11зсз69625 0.0 1017479
18:00+11ссз887110 0.0 1017730
21:00+9ссв456785 0.0 1019333
27 апреля, вт
вт2700:00+9юв21657 0.0 1019145
03:00+9ю33670 0.0 1019248
06:00+9ю33671 0.0 1018238
09:00+10ююв556615 0.0 1019399
12:00+10юв776836 0.0 1019371
15:00+11вюв676864 0.0 1017182
18:00+11в5775100 0.0 1017203
21:00+11вюв6781100 0.0 1018181